Home   Weather   Uppsala   Past weeks

Flag for Sweden Past Weather in Uppsala, Sweden — Yesterday and Last 2 Weeks

Now
32 °F

Ice fog.


Feels Like: 24 °F
Forecast: 26 / 35 °F
Wind: 10 mph from Southwest

Location: Stockholm / Arlanda

Current Time: Jan 18, 2017 at 7:16:47 am

Latest Report: Jan 18, 2017 at 6:20 am


Visibility: 3 mi

Pressure: 30.33 "Hg

Humidity: 100%

Dew Point: 32 °F

Location of UppsalaLocation

Past Weather in Uppsala — Graph

°F

Uppsala Temperature Yesterday

Maximum temperature yesterday: 32 °F (at 9:20 pm)
Minimum temperature yesterday: 16 °F (at 4:20 am)
Average temperature yesterday: 25 °F

High & Low Weather Summary for the Past Weeks

 TemperatureHumidityPressure
High37 °F (Jan 9, 5:50 pm)100% (Jan 3, 6:20 pm)30.69 "Hg (Jan 3, 6:20 pm)
Low-4 °F (Jan 6, 12:50 am)67% (Jan 4, 10:50 pm)28.74 "Hg (Jan 12, 12:20 am)
Average25 °F90%29.81 "Hg
* Reported Jan 3 5:20 am — Jan 18 5:50 am, Uppsala, Weather by CustomWeather, © 2017

Note: Actual official high and low records may vary slightly from our data, if they occured in-between our weather recording intervals... More about our weather records

Advertising

Uppsala Weather History for the Previous 24 Hours

Scroll right to see more
 ConditionsComfort  
Time TempWeatherWind HumidityBarometerVisibility
5:50 am
Wed, Jan 18
32 °FIce fog.10 mph100%30.33 "Hg3 mi
5:20 am32 °FIce fog.10 mph100%30.33 "Hg2 mi
4:50 am32 °FIce fog.12 mph100%30.33 "Hg2 mi
4:20 am32 °FIce fog.12 mph100%30.33 "Hg3 mi
3:50 am32 °FIce fog.8 mph100%30.33 "Hg3 mi
3:20 am32 °FIce fog.9 mph100%30.33 "Hg2 mi
2:50 am32 °FIce fog.8 mph100%30.33 "Hg4 mi
2:20 am32 °FIce fog.9 mph100%30.33 "Hg5 mi
1:50 am32 °FIce fog.9 mph100%30.33 "Hg6 mi
1:20 am32 °FLow clouds.10 mph100%30.36 "HgN/A
12:50 am32 °FLow clouds.10 mph93%30.36 "HgN/A
12:20 am32 °FLow clouds.12 mph93%30.36 "HgN/A
11:50 pm
Tue, Jan 17
32 °FLow clouds.10 mph93%30.36 "HgN/A
11:20 pm32 °FLow clouds.10 mph93%30.36 "HgN/A
10:50 pm32 °FLow clouds.10 mph93%30.36 "HgN/A
10:20 pm32 °FLow clouds.10 mph93%30.36 "HgN/A
9:50 pm32 °FLow clouds.10 mph93%30.36 "HgN/A
9:20 pm32 °FPassing clouds.12 mph93%30.36 "HgN/A
8:50 pm30 °FPassing clouds.12 mph93%30.36 "HgN/A
8:20 pm30 °FPassing clouds.13 mph93%30.36 "HgN/A
7:50 pm30 °FPassing clouds.13 mph93%30.36 "HgN/A
7:20 pm30 °FPassing clouds.13 mph93%30.36 "HgN/A
6:50 pm30 °FPassing clouds.13 mph86%30.36 "HgN/A
6:20 pm30 °FPassing clouds.13 mph86%30.36 "HgN/A
5:50 pm30 °FPassing clouds.12 mph86%30.36 "HgN/A
5:20 pm30 °FPassing clouds.12 mph86%30.39 "HgN/A
4:50 pm28 °FPassing clouds.12 mph86%30.39 "HgN/A
4:20 pm28 °FPassing clouds.12 mph86%30.39 "HgN/A
3:50 pm28 °FPassing clouds.12 mph86%30.39 "HgN/A
3:20 pm28 °FPartly sunny.12 mph86%30.39 "HgN/A
2:50 pm28 °FPartly sunny.13 mph86%30.39 "HgN/A
2:20 pm28 °FPartly sunny.12 mph86%30.39 "HgN/A
1:50 pm28 °FBroken clouds.13 mph86%30.39 "HgN/A
1:20 pm28 °FBroken clouds.12 mph93%30.42 "HgN/A
12:50 pm27 °FBroken clouds.10 mph100%30.42 "HgN/A
12:20 pm27 °FPartly sunny.10 mph93%30.42 "HgN/A
11:50 am27 °FPartly sunny.10 mph93%30.42 "HgN/A
11:20 am25 °FSunny.9 mph100%30.45 "Hg10 mi
10:50 am25 °FPartly sunny.9 mph100%30.45 "HgN/A
10:20 am25 °FPassing clouds.8 mph93%30.45 "HgN/A
9:50 am23 °FPartly sunny.9 mph100%30.45 "HgN/A
9:20 am23 °FSunny.9 mph93%30.45 "Hg10 mi
8:50 am23 °FSunny.7 mph93%30.45 "Hg10 mi
8:20 am21 °FClear.7 mph100%30.45 "Hg10 mi
7:50 am19 °FClear.7 mph100%30.45 "Hg10 mi
7:20 am19 °FClear.7 mph93%30.42 "Hg10 mi
Weather by CustomWeather, © 2017

See weather overviewHow to use our weather pages